Wind_Speed
21 21 21 20 19 18 17 16 15 14 12 12 12 11 10 7 10 14 14 8 11 17 16 15 14 19 17 11 10 8 10 4 11 17 11 5 7 11 12 12 14 15 12 13 13
21 22 23 23 22 22 21 20 19 18 15 14 15 14 12 11 9 12 14 15 12 13 20 17 17 20 21 15 12 12 9 19 11 3 15 8 8 10 14 15 15 16 14 15 13
21 22 23 24 24 23 23 23 23 22 20 18 17 17 15 14 12 11 15 20 20 18 20 25 24 22 25 21 17 16 13 14 16 17 1 15 8 12 15 17 18 18 16 16 15
22 22 22 23 24 24 24 25 25 24 23 22 22 20 18 16 14 13 15 17 23 21 20 24 25 23 23 25 22 22 21 18 15 12 11 8 8 9 13 17 20 19 19 17 16
24 24 24 24 24 24 24 25 26 25 25 25 25 23 21 18 14 16 17 16 19 25 23 22 22 25 21 25 27 24 24 25 21 13 10 16 17 6 12 15 19 19 21 19 16
27 27 27 26 25 25 26 27 26 26 25 26 27 24 23 21 15 16 16 16 18 23 27 24 23 23 27 26 28 24 26 23 20 15 15 11 10 9 11 16 17 19 20 21 21
33 32 30 30 28 28 28 28 30 30 27 27 28 26 24 27 20 17 19 17 15 21 27 28 26 29 27 30 27 32 28 27 25 19 17 15 13 12 13 13 14 15 17 19 21
36 37 37 35 35 34 32 31 31 30 30 29 28 28 24 27 25 21 22 19 19 18 22 32 30 29 30 30 35 34 31 29 26 21 21 14 10 16 12 12 12 14 12 17 18
35 37 40 39 39 39 38 36 36 34 33 31 31 30 30 27 29 26 23 23 23 20 21 24 34 30 32 31 33 35 32 29 25 22 20 17 19 30 13 14 12 12 12 16 20
34 35 36 38 40 41 42 43 41 39 38 36 34 32 31 31 31 29 27 26 26 25 23 21 27 35 33 30 27 33 33 25 27 24 28 20 13 7 17 17 15 13 13 16 20
44 46 46 43 41 40 39 44 45 47 42 42 39 36 33 33 32 34 31 28 28 26 23 21 23 28 30 25 27 27 24 27 24 23 28 23 20 18 19 18 15 18 14 15 20
49 49 50 50 50 49 47 45 45 49 48 47 46 40 40 35 35 36 34 32 30 24 25 24 15 20 28 32 31 32 29 26 27 26 30 27 25 23 23 23 23 19 16 17 20
55 55 57 56 56 59 55 55 53 50 51 45 50 48 45 42 40 39 37 34 32 33 29 23 20 23 30 36 38 35 32 29 26 27 31 30 29 29 25 26 27 23 20 20 19
70 71 71 71 67 63 63 61 59 57 55 49 49 54 50 48 47 44 39 38 38 35 31 30 28 32 29 33 36 37 32 31 29 30 30 36 30 30 28 28 30 26 24 20 19
80 81 84 84 80 77 73 71 64 58 56 59 54 52 55 53 47 50 43 45 44 39 38 32 33 32 30 23 28 32 36 38 37 32 32 30 34 25 26 28 28 26 21 21 21
51 49 51 59 67 78 81 80 74 61 63 54 59 55 56 57 55 54 51 50 45 45 43 39 34 35 30 29 28 30 38 40 41 40 45 40 34 30 29 25 24 29 21 22 23
46 49 54 56 55 56 55 63 63 59 43 46 67 65 60 57 55 61 57 56 56 53 50 44 40 36 39 39 37 34 40 45 46 47 47 42 41 36 28 27 30 31 27 23 21
52 54 53 56 59 61 48 39 43 39 33 64 70 69 66 59 57 60 59 59 57 54 50 49 49 46 42 41 38 38 38 41 43 44 35 34 39 35 31 29 34 28 30 29 25
57 54 55 55 56 59 40 22 12 26 52 67 69 67 59 50 56 58 61 57 60 59 55 52 48 43 44 40 41 39 41 30 33 23 26 25 24 24 30 34 36 37 36 33 29
55 53 48 47 49 50 33 18 27 36 50 58 61 54 47 40 55 59 60 58 59 63 60 52 38 52 46 47 47 45 33 40 39 31 26 27 24 24 18 24 34 36 40 36 33
52 49 45 43 46 44 25 24 33 36 36 49 55 59 56 60 74 65 58 57 65 64 66 62 46 39 53 55 48 46 47 40 36 37 27 21 16 21 25 16 31 34 38 38 32
51 42 40 38 44 36 32 30 27 20 24 38 47 57 58 51 69 74 47 55 66 64 64 63 69 56 52 52 50 47 47 42 40 36 33 18 15 29 22 22 31 35 38 38 33
48 37 35 32 37 35 37 25 16 15 28 28 31 48 67 48 57 72 68 78 74 70 67 66 71 67 48 42 53 56 51 46 41 35 33 34 20 26 18 19 30 37 35 37 36
52 34 34 35 36 37 35 23 15 21 20 20 28 34 52 57 37 51 71 80 76 72 73 70 68 67 57 52 46 56 56 51 47 46 35 33 27 35 24 19 28 36 38 38 39
49 37 32 32 34 34 34 25 14 12 19 15 18 24 36 61 51 50 54 80 74 72 69 70 67 66 60 32 41 45 53 57 55 46 42 25 30 25 31 19 31 36 40 44 43
52 39 32 31 31 34 32 21 16 17 16 14 12 17 25 42 60 51 49 74 76 77 71 72 70 65 66 49 58 57 57 56 56 54 47 40 27 27 29 28 28 39 38 41 40
48 39 29 27 27 32 31 27 18 15 13 15 16 26 22 20 46 68 50 65 80 78 77 77 70 69 70 71 70 67 62 59 55 50 50 49 41 27 37 37 30 32 39 39 41
Wind_Direction
295 294 293 294 295 293 292 291 291 291 291 289 288 289 286 269 247 235 230 224 226 221 218 213 203 195 204 205 205 175 163 226 124 208 266 229 225 226 221 214 209 202 196 212 194
296 293 291 290 288 289 287 284 284 284 285 284 282 281 281 276 261 241 233 210 210 220 210 214 205 194 199 201 204 197 195 151 174 229 223 266 236 218 217 216 213 207 202 210 202
294 292 290 288 287 286 284 282 280 280 284 285 281 275 271 268 260 263 234 220 222 221 223 215 210 201 199 203 212 210 229 75 237 219 169 288 230 222 220 224 216 214 210 214 209
294 293 294 289 284 283 282 280 279 279 278 278 277 275 270 264 258 254 245 227 221 219 219 224 221 212 206 204 211 222 212 227 242 236 175 274 285 233 207 225 218 217 212 213 217
292 294 293 291 289 286 282 278 278 277 276 275 273 271 268 265 259 249 247 245 223 216 214 216 222 218 205 204 213 219 220 225 207 234 236 177 224 238 229 239 231 223 222 217 214
289 288 286 286 285 283 283 283 281 276 273 270 269 267 265 263 258 250 245 242 223 217 214 214 216 214 209 204 209 215 223 220 221 227 242 233 224 205 234 245 241 232 224 220 211
285 284 282 281 278 275 277 277 277 277 275 269 265 263 262 259 257 245 245 238 240 220 215 212 209 217 214 214 206 215 219 221 220 222 225 230 226 222 239 241 239 238 228 219 215
286 284 280 277 276 275 272 271 271 271 271 269 265 261 256 256 256 247 249 234 238 228 221 215 213 213 211 207 215 215 213 217 217 224 223 223 233 228 222 244 243 242 229 221 213
290 286 282 279 276 272 270 268 267 266 265 264 262 261 254 255 253 247 246 245 231 231 226 222 217 217 217 217 216 219 219 213 210 221 211 213 230 209 239 262 260 258 238 224 211
296 291 287 283 277 274 271 267 263 262 262 261 258 257 253 251 252 250 243 242 238 230 229 224 222 219 218 221 219 218 218 212 210 215 209 223 193 236 257 259 266 272 261 236 211
295 293 290 284 282 281 277 271 265 259 256 256 256 255 250 247 244 247 244 237 238 230 231 227 222 220 224 222 224 214 220 208 220 212 219 211 213 237 257 256 234 264 262 245 210
291 290 290 288 284 280 278 273 272 263 254 254 254 248 251 245 240 243 242 237 238 235 232 223 222 214 210 212 214 219 209 217 209 215 215 222 220 233 212 260 255 249 263 242 213
293 287 286 284 281 278 276 273 270 267 262 250 250 249 245 242 239 239 239 238 235 234 230 224 206 209 212 210 209 206 208 209 215 215 223 222 222 226 225 232 248 250 261 241 221
300 296 291 288 280 276 273 272 269 265 265 260 246 246 242 241 236 238 235 235 234 232 232 224 212 215 213 216 214 209 201 207 208 208 228 224 223 233 229 238 248 257 263 232 221
308 305 301 295 288 280 272 272 268 264 259 258 250 243 243 241 240 235 231 232 234 232 229 221 218 216 220 221 221 213 205 210 212 215 217 216 229 221 253 241 239 248 244 233 216
325 325 325 314 303 292 280 273 268 259 252 247 248 244 238 236 235 233 230 229 228 229 229 224 222 219 216 218 216 210 209 211 217 221 222 215 218 223 216 234 233 245 238 240 221
336 334 330 332 329 322 296 278 268 255 241 232 238 237 234 231 229 233 229 227 228 229 226 226 222 217 215 217 214 210 210 211 218 225 233 218 225 223 222 222 230 229 237 245 232
329 327 324 321 324 327 313 283 270 238 214 224 229 234 233 232 226 228 229 225 226 227 228 226 221 218 218 220 222 215 217 217 220 228 235 234 230 230 218 218 219 235 228 240 239
324 324 323 324 326 329 320 292 283 228 208 215 219 223 227 225 226 221 228 223 223 226 224 228 223 225 225 223 224 219 222 224 218 244 231 240 254 234 228 229 228 226 225 229 242
326 325 324 328 332 332 323 299 240 247 235 219 213 211 190 203 216 220 220 220 219 220 221 215 228 222 219 219 219 225 223 218 216 212 229 232 227 248 241 227 221 223 228 229 242
328 327 330 333 335 337 335 277 259 261 254 238 214 203 182 196 205 206 212 216 213 214 216 213 214 216 220 218 219 219 222 218 223 220 218 227 240 252 237 223 209 217 222 226 232
328 330 332 336 339 336 334 320 294 289 268 244 223 209 187 195 203 197 186 215 208 212 215 208 216 210 219 221 220 220 225 223 223 219 216 204 217 237 213 213 205 213 219 222 227
332 327 328 339 340 338 337 317 296 303 285 257 227 217 200 195 198 198 193 211 206 206 209 206 212 214 206 220 219 216 217 219 222 218 225 211 210 230 207 203 203 208 212 213 218
334 329 331 339 341 345 344 327 310 293 284 264 240 226 215 198 188 191 202 208 208 208 209 211 211 213 215 224 223 216 217 217 218 219 215 222 208 235 201 204 204 208 210 208 215
337 333 331 337 342 343 339 347 323 264 277 276 241 232 225 211 198 193 203 208 204 207 209 211 210 212 200 198 213 224 220 219 219 220 219 212 221 229 238 207 199 206 218 223 220
341 327 331 337 340 340 341 339 308 286 273 263 223 231 222 219 214 201 196 209 203 203 206 209 208 211 204 198 207 214 214 216 225 222 223 213 207 227 225 220 204 204 216 222 225
349 336 334 341 341 340 336 350 321 308 269 253 232 213 208 214 216 211 207 206 205 206 205 207 206 209 209 211 216 215 214 216 216 223 221 223 213 205 225 226 215 215 217 223 225
Height
5880 5879 5878 5877 5876 5875 5875 5873 5873 5873 5872 5871 5871 5870 5870 5870 5871 5872 5873 5875 5876 5877 5878 5879 5881 5883 5885 5887 5889 5892 5893 5892 5893 5892 5891 5890 5890 5891 5892 5893 5893 5894 5895 5897 5896
5877 5875 5874 5873 5872 5871 5871 5870 5869 5868 5869 5869 5868 5868 5867 5868 5868 5868 5871 5872 5873 5874 5876 5877 5879 5881 5883 5885 5888 5891 5889 5886 5897 5894 5893 5892 5890 5891 5892 5893 5893 5894 5895 5896 5897
5873 5871 5870 5869 5868 5867 5866 5865 5865 5865 5865 5865 5864 5864 5865 5865 5866 5866 5866 5868 5870 5872 5873 5873 5875 5878 5881 5883 5886 5888 5888 5881 5893 5896 5898 5892 5890 5891 5892 5893 5893 5894 5894 5896 5897
5869 5867 5866 5864 5863 5863 5861 5860 5860 5860 5861 5861 5860 5860 5860 5861 5864 5862 5862 5863 5865 5867 5869 5871 5874 5877 5879 5881 5883 5885 5888 5889 5892 5890 5896 5895 5892 5889 5892 5891 5892 5893 5894 5895 5896
5864 5863 5861 5859 5858 5857 5856 5855 5855 5855 5855 5855 5854 5855 5856 5857 5859 5857 5858 5859 5860 5863 5865 5868 5871 5874 5877 5880 5881 5883 5886 5888 5891 5891 5891 5896 5895 5896 5889 5891 5892 5892 5893 5894 5895
5858 5857 5856 5854 5853 5852 5851 5849 5849 5849 5850 5850 5849 5850 5851 5852 5854 5853 5854 5855 5856 5858 5861 5864 5867 5870 5873 5875 5879 5882 5883 5885 5888 5890 5890 5893 5896 5891 5890 5891 5891 5891 5892 5893 5894
5851 5850 5849 5848 5847 5846 5845 5844 5843 5842 5843 5843 5843 5844 5846 5846 5848 5849 5850 5852 5853 5855 5856 5859 5862 5863 5869 5872 5876 5877 5880 5883 5885 5888 5892 5892 5896 5891 5892 5890 5890 5891 5891 5892 5892
5843 5840 5840 5840 5839 5838 5838 5838 5837 5836 5836 5836 5836 5837 5841 5840 5842 5845 5845 5848 5849 5850 5852 5854 5857 5860 5862 5868 5869 5872 5876 5880 5884 5886 5888 5891 5894 5890 5890 5890 5890 5890 5891 5891 5892
5835 5832 5830 5830 5829 5828 5828 5829 5828 5829 5829 5829 5830 5831 5833 5835 5836 5839 5841 5842 5844 5846 5847 5850 5852 5856 5857 5860 5864 5867 5872 5877 5883 5884 5888 5889 5890 5879 5888 5890 5889 5889 5889 5890 5890
5826 5823 5821 5819 5818 5818 5817 5817 5818 5819 5820 5821 5822 5824 5827 5827 5829 5831 5834 5836 5838 5840 5843 5845 5846 5849 5852 5855 5859 5863 5869 5876 5880 5886 5886 5888 5891 5887 5887 5888 5887 5887 5888 5888 5889
5817 5813 5811 5809 5807 5806 5807 5805 5807 5807 5810 5810 5814 5815 5817 5819 5821 5822 5826 5829 5831 5834 5838 5840 5841 5843 5850 5855 5859 5862 5868 5873 5882 5881 5883 5887 5889 5889 5890 5887 5889 5886 5887 5887 5888
5805 5801 5798 5797 5794 5793 5793 5793 5791 5792 5798 5798 5799 5806 5806 5811 5812 5814 5818 5823 5826 5830 5831 5834 5839 5840 5842 5846 5850 5856 5862 5870 5876 5880 5880 5884 5886 5887 5887 5888 5886 5886 5886 5886 5887
5789 5785 5782 5780 5779 5776 5777 5775 5776 5777 5779 5790 5788 5791 5795 5798 5802 5805 5810 5815 5818 5820 5825 5830 5834 5833 5836 5839 5842 5848 5854 5863 5871 5874 5878 5877 5880 5883 5886 5888 5885 5884 5884 5885 5887
5767 5761 5758 5754 5757 5755 5754 5755 5756 5760 5762 5770 5774 5776 5780 5785 5788 5795 5802 5806 5809 5814 5820 5822 5825 5827 5831 5834 5838 5843 5851 5854 5861 5867 5870 5871 5876 5876 5880 5882 5880 5882 5882 5884 5885
5741 5732 5726 5721 5722 5724 5728 5729 5735 5742 5744 5743 5754 5765 5765 5772 5781 5782 5792 5792 5798 5806 5809 5818 5819 5823 5826 5832 5835 5842 5845 5847 5851 5856 5863 5865 5870 5877 5876 5877 5879 5879 5881 5882 5883
5721 5714 5706 5699 5690 5688 5692 5697 5707 5719 5720 5723 5729 5741 5749 5756 5761 5766 5774 5780 5788 5792 5798 5805 5812 5815 5822 5824 5828 5833 5838 5842 5845 5848 5848 5856 5864 5870 5875 5876 5879 5879 5879 5880 5881
5712 5705 5697 5688 5682 5672 5664 5664 5678 5687 5700 5695 5704 5715 5725 5736 5744 5747 5759 5764 5770 5778 5787 5796 5802 5809 5811 5815 5819 5824 5828 5833 5837 5835 5836 5851 5854 5860 5869 5873 5875 5876 5877 5878 5879
5707 5700 5691 5682 5671 5660 5648 5645 5648 5663 5662 5666 5679 5693 5708 5720 5726 5732 5740 5751 5758 5768 5777 5783 5789 5797 5803 5807 5814 5818 5821 5825 5828 5833 5839 5844 5843 5850 5859 5864 5871 5871 5875 5875 5876
5697 5689 5678 5668 5659 5649 5637 5634 5641 5637 5629 5635 5655 5672 5691 5702 5709 5716 5724 5737 5746 5754 5764 5772 5783 5790 5795 5802 5806 5811 5812 5826 5829 5835 5839 5842 5842 5848 5853 5854 5858 5863 5867 5872 5872
5688 5678 5668 5659 5649 5638 5629 5628 5623 5617 5617 5621 5635 5648 5661 5674 5691 5702 5707 5720 5729 5738 5750 5762 5770 5778 5784 5789 5795 5801 5815 5813 5818 5827 5833 5839 5842 5843 5843 5847 5851 5855 5861 5868 5869
5674 5665 5657 5647 5638 5630 5624 5618 5611 5608 5609 5608 5617 5628 5639 5645 5651 5677 5692 5698 5706 5716 5729 5748 5755 5767 5771 5773 5786 5795 5797 5805 5816 5819 5828 5835 5840 5839 5840 5841 5844 5850 5855 5861 5868
5666 5658 5647 5639 5630 5619 5612 5603 5596 5594 5593 5593 5600 5613 5625 5629 5637 5652 5669 5667 5687 5703 5716 5731 5736 5749 5760 5772 5778 5785 5794 5801 5805 5813 5820 5834 5839 5831 5836 5835 5839 5844 5850 5857 5863
5657 5647 5639 5631 5624 5615 5604 5594 5590 5587 5584 5584 5589 5594 5607 5612 5625 5634 5641 5657 5672 5684 5694 5707 5721 5735 5751 5760 5763 5771 5782 5793 5801 5809 5812 5821 5829 5823 5829 5831 5835 5840 5845 5851 5857
5648 5637 5629 5620 5612 5604 5596 5587 5583 5583 5578 5577 5579 5585 5591 5605 5613 5625 5630 5639 5655 5667 5684 5697 5712 5724 5742 5752 5761 5764 5773 5782 5791 5797 5806 5813 5822 5817 5824 5828 5831 5836 5841 5845 5850
5639 5630 5622 5616 5607 5598 5590 5582 5578 5576 5574 5573 5575 5577 5581 5591 5596 5607 5615 5625 5643 5660 5671 5685 5700 5713 5729 5742 5748 5754 5764 5772 5780 5790 5798 5811 5812 5816 5816 5822 5825 5830 5834 5837 5841
5634 5624 5617 5609 5600 5592 5584 5579 5574 5571 5569 5569 5570 5570 5572 5580 5586 5594 5601 5610 5628 5639 5655 5670 5687 5699 5713 5722 5728 5737 5748 5761 5770 5782 5790 5800 5809 5811 5812 5816 5821 5824 5828 5833 5838
5629 5619 5611 5606 5597 5589 5582 5576 5570 5566 5565 5565 5564 5565 5566 5569 5574 5584 5591 5601 5617 5630 5644 5658 5674 5684 5698 5708 5715 5724 5739 5750 5760 5769 5780 5787 5797 5803 5803 5808 5815 5819 5824 5826 5832